Temp
82 81 79 79 79 78 78 79 79 79 79 80 78 78 78 79 80 79 80 80 80 79 79 79 79 78 78 77 78 77 76 76 76 76 76 75 74 74 74 72 69 69
82 82 80 80 78 79 79 80 80 79 79 79 79 80 80 79 80 80 79 79 79 79 79 79 79 78 78 77 77 76 75 76 75 77 75 74 74 74 74 75 74 74
82 82 81 80 80 81 82 81 80 80 80 80 80 80 80 81 80 80 79 79 78 79 79 79 79 78 78 77 77 75 74 74 74 77 75 75 74 74 74 75 74 74
82 82 82 82 81 81 81 80 80 80 80 80 80 81 81 81 80 79 79 79 78 78 79 79 78 79 79 78 78 76 76 76 76 76 75 76 76 75 75 75 75 74
82 81 81 81 82 81 80 80 79 80 80 80 81 80 80 80 79 79 78 78 78 78 78 79 79 79 79 78 78 76 76 76 76 76 75 74 74 75 76 75 73 73
82 82 82 81 81 80 79 80 80 80 80 80 80 81 80 80 79 79 79 79 80 79 79 79 78 79 79 78 77 76 76 75 75 75 75 74 75 75 76 75 74 73
81 81 81 81 81 80 80 79 80 80 79 79 80 79 80 79 79 79 79 78 78 78 78 77 77 77 78 77 76 76 76 75 76 75 74 74 74 74 75 74 73 73
82 82 82 81 80 80 80 80 79 79 80 80 79 79 79 80 79 79 79 79 78 77 77 77 77 77 78 77 76 75 75 76 76 75 74 74 74 73 74 75 74 72
82 81 81 81 81 80 81 81 82 80 79 78 80 81 81 80 79 79 78 78 77 77 77 77 76 76 76 76 75 75 75 75 75 75 74 73 73 73 73 73 73 72
81 81 81 82 82 80 81 83 84 83 82 82 83 82 80 80 80 79 78 77 77 77 77 76 77 76 76 76 75 75 75 74 74 73 73 74 74 73 73 73 72 72
81 81 81 80 81 84 84 85 86 86 83 81 80 80 80 79 79 81 79 78 79 78 77 76 76 76 75 75 75 73 72 72 72 73 73 73 73 73 74 73 73 72
80 81 81 82 82 83 84 83 83 81 82 83 82 82 81 82 79 79 79 78 79 79 78 77 76 76 75 74 74 73 69 66 66 68 68 70 73 74 74 74 73 73
81 80 81 83 81 81 81 82 83 84 84 82 82 82 82 81 81 79 79 79 79 79 78 77 77 77 75 75 75 71 68 67 68 70 70 71 74 75 75 75 74 74
82 81 81 81 81 82 81 81 81 80 79 79 80 79 81 81 82 80 80 79 78 77 77 77 77 77 76 75 73 71 71 69 70 71 72 74 74 74 75 75 75 75
81 81 81 81 80 80 79 79 79 79 79 79 79 79 80 82 81 81 78 76 77 77 77 78 77 77 75 73 73 73 73 72 73 73 73 73 73 74 74 74 75 75
80 80 80 80 79 78 79 79 79 79 79 79 79 79 79 78 78 78 78 77 77 77 77 78 77 77 71 68 69 72 74 74 74 73 73 72 72 72 73 74 74 70
79 79 79 78 78 78 78 78 78 78 78 77 77 77 77 77 77 77 78 78 77 77 76 77 77 77 68 64 65 66 71 73 73 72 73 72 72 71 71 72 72 71
79 79 78 78 78 78 78 78 78 78 77 77 77 77 77 78 77 77 77 77 77 77 77 77 77 75 66 64 65 66 67 72 73 72 72 72 72 72 71 71 70 71
79 78 78 78 78 78 78 78 78 77 77 77 77 77 78 76 76 77 76 77 77 76 76 77 77 73 64 64 64 64 64 67 72 72 72 72 72 72 71 70 70 69
78 78 78 78 78 78 78 78 77 77 77 78 78 77 76 76 77 77 77 76 76 76 75 76 76 72 64 62 62 62 63 65 72 72 72 72 71 71 70 70 69 69
78 78 78 78 78 78 77 77 77 76 77 77 78 77 76 76 76 76 76 76 77 78 77 76 76 62 64 61 60 60 61 63 71 72 72 71 71 71 70 69 69 68
79 78 78 78 78 78 77 77 77 76 76 76 76 77 77 78 77 77 76 76 77 78 77 75 77 66 64 62 59 59 60 67 71 71 71 71 71 71 69 68 68 68
80 79 78 78 78 77 77 77 76 76 76 77 76 76 76 76 76 77 77 77 77 77 74 73 75 70 62 59 58 57 61 69 71 71 71 71 70 70 70 70 70 69
80 79 78 78 78 77 77 78 78 77 77 77 76 76 77 78 78 77 78 77 78 77 78 75 77 64 55 55 54 55 61 68 70 70 70 70 70 71 71 71 72 72
81 80 79 79 78 78 79 78 77 77 77 77 78 78 77 77 77 76 76 77 81 81 74 75 77 68 54 54 53 55 59 67 69 70 69 69 69 69 71 71 71 71
81 79 79 79 79 78 78 77 78 78 78 78 78 79 78 77 76 76 76 78 80 81 79 78 76 75 64 53 53 54 56 63 68 68 68 68 69 69 68 69 69 70
MSLP
1014.84 1015.00 1015.24 1015.36 1015.44 1015.52 1015.68 1015.76 1015.72 1015.80 1015.80 1015.72 1015.92 1015.80 1015.76 1015.60 1015.44 1015.44 1015.36 1015.28 1015.20 1015.20 1015.08 1015.00 1014.92 1015.04 1015.08 1015.04 1014.96 1014.96 1015.00 1015.04 1015.04 1014.88 1014.96 1014.96 1015.08 1015.12 1015.16 1015.12 1015.28 1015.44
1014.80 1014.84 1015.00 1015.12 1015.32 1015.32 1015.36 1015.32 1015.40 1015.52 1015.64 1015.60 1015.48 1015.44 1015.40 1015.40 1015.36 1015.28 1015.28 1015.28 1015.16 1015.12 1014.96 1014.92 1014.92 1014.92 1014.96 1015.00 1014.96 1015.16 1015.16 1015.08 1015.12 1014.84 1015.00 1014.96 1014.92 1014.92 1014.92 1014.80 1014.88 1014.84
1014.64 1014.80 1014.92 1015.16 1015.20 1015.12 1015.08 1015.08 1015.24 1015.28 1015.40 1015.32 1015.20 1015.16 1015.20 1015.12 1015.20 1015.12 1015.16 1015.16 1015.16 1015.08 1014.96 1014.84 1014.84 1014.80 1014.84 1014.88 1014.96 1015.20 1015.24 1015.16 1015.12 1014.80 1014.80 1014.88 1014.76 1014.80 1014.68 1014.60 1014.68 1014.64
1014.48 1014.60 1014.76 1014.80 1014.88 1015.04 1015.00 1015.12 1015.20 1015.20 1015.12 1015.20 1015.16 1015.04 1015.08 1015.04 1015.04 1015.12 1015.04 1015.00 1015.04 1015.00 1014.84 1014.76 1014.76 1014.64 1014.64 1014.64 1014.68 1014.84 1014.84 1014.84 1014.72 1014.64 1014.68 1014.60 1014.56 1014.52 1014.52 1014.40 1014.40 1014.36
1014.36 1014.52 1014.60 1014.68 1014.68 1014.76 1014.88 1015.16 1015.24 1015.12 1015.08 1014.96 1014.92 1014.88 1014.92 1014.96 1015.00 1015.00 1014.96 1014.92 1014.84 1014.84 1014.72 1014.64 1014.52 1014.52 1014.48 1014.56 1014.56 1014.76 1014.72 1014.72 1014.56 1014.56 1014.64 1014.68 1014.60 1014.44 1014.28 1014.24 1014.36 1014.36
1014.16 1014.28 1014.40 1014.56 1014.64 1014.80 1014.96 1015.00 1014.96 1014.96 1014.96 1014.92 1014.84 1014.72 1014.80 1014.80 1014.92 1014.88 1014.84 1014.88 1014.76 1014.68 1014.64 1014.52 1014.52 1014.48 1014.44 1014.48 1014.52 1014.64 1014.68 1014.72 1014.60 1014.56 1014.64 1014.72 1014.52 1014.32 1014.24 1014.20 1014.20 1014.24
1014.24 1014.36 1014.48 1014.48 1014.56 1014.60 1014.76 1014.80 1014.76 1014.64 1014.64 1014.64 1014.48 1014.60 1014.60 1014.68 1014.72 1014.68 1014.64 1014.68 1014.68 1014.64 1014.64 1014.56 1014.56 1014.52 1014.36 1014.44 1014.52 1014.60 1014.52 1014.52 1014.48 1014.44 1014.52 1014.44 1014.36 1014.32 1014.16 1014.16 1014.12 1014.12
1013.96 1014.04 1014.20 1014.28 1014.48 1014.48 1014.60 1014.60 1014.56 1014.40 1014.28 1014.20 1014.36 1014.28 1014.20 1014.32 1014.36 1014.40 1014.40 1014.44 1014.56 1014.56 1014.52 1014.44 1014.40 1014.40 1014.28 1014.28 1014.44 1014.48 1014.48 1014.36 1014.36 1014.40 1014.44 1014.40 1014.28 1014.32 1014.16 1014.04 1014.00 1014.08
1013.68 1013.92 1014.04 1014.20 1014.36 1014.40 1014.44 1014.28 1014.12 1014.00 1013.84 1014.04 1014.12 1013.92 1013.76 1013.84 1013.92 1013.96 1014.04 1014.12 1014.24 1014.32 1014.32 1014.32 1014.32 1014.28 1014.28 1014.36 1014.40 1014.40 1014.40 1014.36 1014.28 1014.32 1014.40 1014.36 1014.32 1014.24 1014.12 1013.96 1014.00 1014.00
1013.68 1013.80 1013.96 1014.04 1014.16 1014.12 1014.12 1013.88 1013.68 1013.60 1013.40 1013.64 1013.76 1013.68 1013.72 1013.56 1013.52 1013.60 1013.68 1013.80 1013.92 1014.04 1014.12 1014.16 1014.20 1014.20 1014.20 1014.16 1014.20 1014.24 1014.32 1014.28 1014.20 1014.32 1014.36 1014.12 1014.12 1014.08 1014.00 1013.96 1013.92 1013.88
1013.56 1013.68 1013.88 1014.00 1014.00 1013.80 1013.64 1013.44 1013.28 1013.20 1013.28 1013.52 1013.52 1013.60 1013.52 1013.52 1013.48 1013.32 1013.48 1013.56 1013.68 1013.76 1013.88 1013.96 1014.04 1014.08 1014.16 1014.08 1014.08 1014.24 1014.40 1014.40 1014.32 1014.24 1014.28 1014.24 1014.00 1013.92 1013.80 1013.72 1013.64 1013.64
1013.44 1013.52 1013.64 1013.64 1013.60 1013.52 1013.40 1013.36 1013.40 1013.52 1013.60 1013.40 1013.40 1013.56 1013.48 1013.36 1013.40 1013.32 1013.36 1013.44 1013.40 1013.44 1013.52 1013.68 1013.68 1013.80 1013.88 1013.96 1014.04 1014.16 1014.32 1014.28 1014.20 1014.44 1014.80 1014.64 1014.16 1013.80 1013.56 1013.40 1013.36 1013.28
1013.12 1013.32 1013.32 1013.36 1013.36 1013.36 1013.32 1013.32 1013.32 1013.28 1013.36 1013.52 1013.44 1013.40 1013.48 1013.48 1013.36 1013.36 1013.20 1013.24 1013.24 1013.24 1013.36 1013.44 1013.44 1013.40 1013.52 1013.64 1013.80 1014.04 1014.24 1014.32 1014.36 1014.36 1014.28 1014.04 1013.68 1013.48 1013.28 1013.08 1013.00 1012.88
1012.68 1012.80 1012.96 1013.04 1013.04 1013.08 1013.16 1013.24 1013.32 1013.44 1013.52 1013.52 1013.52 1013.68 1013.56 1013.40 1013.32 1013.32 1013.20 1013.16 1013.24 1013.32 1013.28 1013.24 1013.24 1013.24 1013.28 1013.44 1013.64 1013.80 1014.00 1014.20 1014.16 1014.04 1013.84 1013.52 1013.32 1013.16 1013.00 1012.84 1012.68 1012.60
1012.44 1012.52 1012.60 1012.76 1012.92 1013.04 1013.16 1013.24 1013.28 1013.32 1013.36 1013.44 1013.44 1013.44 1013.32 1013.20 1013.16 1013.16 1013.32 1013.36 1013.24 1013.20 1013.12 1013.00 1013.00 1013.04 1013.20 1013.48 1013.64 1013.48 1013.52 1013.60 1013.56 1013.52 1013.44 1013.36 1013.20 1013.04 1012.84 1012.68 1012.56 1012.48
1012.28 1012.44 1012.56 1012.64 1012.80 1012.96 1013.00 1013.04 1013.12 1013.16 1013.20 1013.28 1013.32 1013.24 1013.20 1013.16 1013.16 1013.16 1013.24 1013.24 1013.20 1013.08 1012.96 1012.88 1012.88 1012.88 1012.96 1013.04 1013.12 1013.20 1013.16 1013.16 1013.16 1013.20 1013.20 1013.16 1013.12 1012.96 1012.76 1012.52 1012.36 1012.72
1012.20 1012.36 1012.40 1012.60 1012.60 1012.68 1012.76 1012.84 1012.96 1013.00 1013.08 1013.16 1013.16 1013.12 1013.12 1013.08 1013.08 1013.08 1013.08 1013.04 1013.12 1013.08 1013.00 1012.84 1012.76 1012.64 1012.76 1012.84 1012.80 1012.80 1012.88 1012.96 1013.04 1013.00 1012.92 1012.88 1012.80 1012.76 1012.68 1012.44 1012.28 1012.16
1012.00 1012.08 1012.24 1012.36 1012.40 1012.52 1012.56 1012.60 1012.68 1012.80 1012.96 1013.00 1013.00 1013.00 1012.92 1012.80 1012.88 1012.92 1012.92 1012.92 1012.88 1012.84 1012.76 1012.68 1012.60 1012.40 1012.44 1012.48 1012.52 1012.52 1012.60 1012.72 1012.72 1012.80 1012.76 1012.72 1012.64 1012.56 1012.44 1012.36 1012.28 1012.08
1011.68 1011.88 1012.04 1012.12 1012.16 1012.20 1012.24 1012.32 1012.48 1012.64 1012.76 1012.88 1012.88 1012.64 1012.56 1012.72 1012.72 1012.72 1012.76 1012.64 1012.68 1012.68 1012.64 1012.44 1012.32 1012.08 1012.16 1012.20 1012.28 1012.36 1012.40 1012.56 1012.60 1012.60 1012.64 1012.56 1012.44 1012.32 1012.24 1012.24 1012.20 1012.16
1011.44 1011.64 1011.80 1011.88 1011.84 1011.92 1012.00 1012.16 1012.28 1012.48 1012.48 1012.44 1012.44 1012.36 1012.44 1012.48 1012.44 1012.48 1012.48 1012.52 1012.48 1012.44 1012.36 1012.24 1012.04 1012.00 1012.12 1012.16 1012.24 1012.24 1012.24 1012.40 1012.44 1012.44 1012.40 1012.32 1012.28 1012.20 1012.16 1012.16 1012.12 1012.12
1011.28 1011.44 1011.60 1011.68 1011.68 1011.76 1011.84 1011.96 1012.04 1012.12 1012.24 1012.28 1012.28 1012.28 1012.28 1012.28 1012.28 1012.32 1012.32 1012.32 1012.20 1012.08 1012.04 1012.00 1011.96 1011.96 1012.04 1012.20 1012.24 1012.20 1012.16 1012.36 1012.28 1012.24 1012.20 1012.16 1012.04 1011.96 1011.96 1011.96 1011.92 1011.80
1010.92 1011.20 1011.32 1011.40 1011.52 1011.60 1011.72 1011.84 1011.84 1011.88 1012.00 1011.96 1012.04 1012.04 1011.92 1011.84 1011.84 1011.88 1012.04 1012.04 1011.88 1011.80 1011.88 1012.12 1011.88 1011.80 1011.92 1012.00 1012.08 1012.16 1012.40 1012.44 1012.16 1012.12 1012.04 1011.92 1011.80 1011.72 1011.76 1011.68 1011.56 1011.52
1010.48 1010.76 1011.00 1011.12 1011.20 1011.36 1011.48 1011.52 1011.56 1011.52 1011.48 1011.40 1011.76 1011.84 1011.88 1011.84 1011.72 1011.68 1011.60 1011.68 1011.68 1011.64 1011.96 1012.04 1011.88 1011.68 1011.84 1011.92 1011.88 1012.12 1012.36 1012.20 1012.04 1011.92 1011.84 1011.80 1011.72 1011.56 1011.44 1011.32 1011.16 1011.04
1010.00 1010.24 1010.52 1010.68 1010.80 1011.00 1011.04 1011.04 1011.00 1011.00 1011.08 1011.04 1011.44 1011.68 1011.72 1011.56 1011.40 1011.44 1011.36 1011.40 1011.48 1011.52 1011.60 1011.80 1011.68 1011.72 1011.88 1011.88 1012.00 1012.08 1012.16 1012.12 1011.96 1011.84 1011.76 1011.68 1011.52 1011.28 1011.12 1010.96 1010.76 1010.64
1009.52 1009.72 1009.96 1010.16 1010.32 1010.40 1010.48 1010.68 1010.72 1010.80 1010.76 1010.76 1010.92 1011.08 1011.20 1011.12 1011.16 1011.32 1011.36 1011.28 1011.04 1011.00 1011.24 1011.52 1011.44 1011.44 1011.64 1011.88 1011.92 1012.04 1012.16 1012.08 1011.92 1011.76 1011.76 1011.56 1011.40 1011.20 1010.92 1010.80 1010.68 1010.44
1009.04 1009.28 1009.44 1009.60 1009.76 1009.92 1010.04 1010.16 1010.24 1010.40 1010.56 1010.56 1010.60 1010.64 1010.84 1010.96 1011.12 1011.16 1011.20 1011.00 1010.76 1010.80 1010.96 1011.12 1011.32 1011.40 1011.68 1011.88 1011.92 1011.92 1012.12 1012.20 1011.88 1011.80 1011.72 1011.52 1011.32 1011.20 1011.12 1010.88 1010.64 1010.40
Wind_Speed
2 3 1 1 1 1 1 2 2 2 2 2 3 3 3 3 3 4 4 3 4 4 4 3 2 2 3 4 3 4 3 4 4 4 3 3 3 4 4 2 4 6
4 3 3 2 2 2 3 4 1 2 2 3 3 2 2 3 4 4 3 4 4 4 4 4 3 3 3 3 3 5 4 4 5 3 3 4 4 5 5 4 4 3
4 3 3 4 4 3 2 2 2 2 2 3 3 3 3 2 3 3 3 4 4 4 4 3 3 3 2 3 2 3 3 4 5 4 3 3 4 4 4 4 3 4
4 3 3 2 2 2 2 2 2 3 3 3 2 3 3 3 3 3 3 4 4 4 4 4 4 4 3 2 3 3 3 3 3 3 4 3 3 3 4 3 3 4
4 4 3 2 2 1 0 2 3 3 4 2 3 3 2 2 2 3 3 3 3 4 4 4 3 3 2 2 2 3 3 4 3 3 3 3 3 4 3 3 3 4
3 3 3 2 3 2 3 3 2 2 4 5 3 2 2 3 3 4 4 4 5 5 5 4 4 4 3 3 3 3 4 4 3 4 3 4 4 4 3 3 4 4
4 4 4 4 5 4 4 4 3 4 3 5 5 3 3 4 4 3 3 4 5 5 5 5 4 4 3 3 3 3 3 3 4 4 4 4 4 4 4 4 3 4
5 4 5 4 5 4 4 3 4 5 5 4 5 6 5 4 3 4 3 3 5 5 5 6 5 5 5 3 3 3 3 4 4 4 4 4 4 4 4 3 3 4
5 5 4 4 4 4 6 6 7 8 8 8 6 4 3 3 4 4 4 4 4 4 4 5 5 5 4 4 4 4 5 5 5 5 5 4 5 5 4 4 4 4
5 4 4 6 7 6 8 7 5 5 4 0 2 2 3 3 4 5 5 5 4 3 3 4 4 4 4 4 4 5 6 6 5 5 7 5 5 5 5 5 5 5
6 6 6 6 6 5 6 7 7 5 4 5 5 5 5 5 4 2 2 3 3 2 3 4 4 4 5 4 3 3 5 7 9 8 8 7 6 5 5 5 5 5
6 6 7 6 7 5 5 4 4 3 5 7 4 5 5 5 4 4 3 3 3 2 2 4 4 4 5 4 3 2 4 5 6 7 9 11 8 6 6 5 5 6
8 7 5 7 5 4 4 4 5 5 5 7 7 7 8 8 7 5 4 4 3 2 3 4 4 4 4 4 1 1 3 5 7 8 7 8 8 7 7 7 6 5
6 6 6 4 3 2 2 2 3 2 3 3 4 6 8 8 7 6 6 4 5 5 5 5 5 5 4 2 3 3 4 6 6 6 8 8 7 7 7 8 7 6
4 4 4 4 4 4 4 4 3 3 3 4 4 5 6 7 6 7 5 6 6 6 6 6 5 4 1 0 3 4 5 5 5 5 6 7 7 8 7 7 8 7
5 4 4 4 4 4 4 4 4 4 5 4 4 5 5 4 4 4 6 6 6 5 5 5 4 2 4 8 7 4 4 4 4 5 6 6 7 7 8 7 7 3
6 6 5 5 5 4 4 4 4 4 4 4 5 4 4 5 6 6 4 4 6 7 7 5 4 4 8 10 10 10 6 4 4 5 6 6 6 6 6 6 6 4
7 7 7 6 6 6 5 5 5 4 4 4 5 5 5 4 4 4 4 5 5 6 6 5 5 6 8 10 10 11 8 5 4 5 5 6 6 6 6 6 7 8
7 7 7 7 6 6 5 5 5 5 5 5 6 6 4 4 4 4 5 4 4 5 5 5 5 7 10 11 11 10 9 7 4 5 5 6 6 6 7 6 7 8
7 7 7 7 6 6 6 5 5 6 5 5 5 4 4 5 4 4 3 4 4 5 5 4 5 5 4 9 9 10 10 6 5 6 5 6 6 6 6 7 7 8
8 7 7 6 6 6 6 6 6 5 6 6 6 5 4 4 4 3 3 5 7 6 4 4 1 6 1 5 9 10 10 5 4 5 5 6 6 6 6 5 7 7
8 8 7 6 6 6 7 7 7 6 6 6 6 6 5 4 4 4 4 5 5 5 2 4 4 3 3 6 8 10 4 3 4 5 5 6 6 5 5 7 7 8
9 9 8 8 7 7 8 8 7 7 6 5 6 6 6 6 5 5 4 5 5 4 2 1 3 3 2 6 7 3 3 4 5 5 5 6 6 6 7 6 6 6
9 9 9 9 8 9 9 7 7 6 6 5 6 6 7 6 5 4 4 4 5 3 2 2 3 5 3 3 3 4 2 4 4 5 5 5 6 7 6 5 6 12
9 10 10 10 10 10 9 8 7 6 6 5 6 6 6 4 3 3 5 5 7 6 4 4 5 2 7 5 3 4 3 4 5 5 5 6 6 6 6 5 6 7
9 9 10 10 10 8 8 7 5 6 6 6 6 5 5 3 5 7 8 7 5 5 3 3 2 2 5 4 4 4 4 4 4 4 5 6 6 6 6 7 6 6
Wind_Direction
174 155 150 150 117 146 274 253 261 274 278 296 293 290 305 306 308 301 294 305 310 297 302 298 314 313 269 264 307 310 303 316 311 294 325 325 308 289 283 262 204 236
178 183 150 135 186 193 219 224 270 345 319 274 264 317 318 297 280 277 302 303 304 299 305 317 303 302 301 297 315 336 321 316 307 326 324 310 309 303 303 313 306 306
185 202 181 191 214 223 276 345 279 274 290 303 294 251 247 265 288 303 300 291 290 302 295 291 295 275 285 295 292 235 261 270 279 297 274 287 280 286 307 325 309 302
189 189 201 230 239 250 234 224 253 238 251 261 306 344 302 270 276 284 283 291 284 285 287 273 261 263 257 276 274 277 263 269 292 289 289 281 293 302 288 308 313 308
189 183 197 222 229 250 17 277 274 260 260 300 312 287 299 302 306 301 285 284 287 277 274 283 287 294 287 276 289 284 284 277 269 283 279 285 285 285 300 309 314 311
178 184 204 210 208 206 228 243 264 294 270 255 264 290 289 294 280 274 288 297 298 297 294 293 294 294 294 283 287 269 285 294 290 287 292 290 298 298 299 305 308 311
179 188 199 203 206 212 225 227 224 250 257 252 235 228 242 255 266 279 292 286 289 297 297 299 293 284 277 279 271 267 260 269 285 287 290 294 287 297 301 301 304 313
197 194 202 199 212 219 225 224 241 235 237 242 233 220 212 234 244 258 262 280 289 291 296 297 298 292 289 289 284 284 290 284 281 288 294 295 299 294 302 304 311 305
191 193 200 214 221 227 232 236 234 227 221 226 231 246 222 217 227 236 241 244 254 268 283 292 293 301 311 310 311 293 289 291 286 296 292 289 295 302 303 308 297 298
181 204 218 223 219 210 228 239 253 265 251 87 354 289 255 246 250 246 234 231 235 250 275 286 295 295 299 283 274 301 311 309 300 296 291 288 290 298 303 296 291 289
195 202 208 217 239 252 252 252 259 289 355 328 278 269 268 262 252 272 287 256 229 238 275 286 282 287 278 279 294 326 335 332 323 313 307 304 298 293 292 282 278 283
192 205 215 219 223 235 258 302 320 323 272 266 309 329 334 314 304 299 280 292 284 248 270 273 274 268 264 258 279 11 357 320 306 317 312 300 297 291 285 277 278 280
185 193 207 221 212 208 223 240 251 280 304 322 318 315 325 318 301 288 293 291 298 316 295 294 280 271 265 258 260 73 306 295 287 289 283 274 279 289 288 285 281 281
186 184 191 203 219 235 259 246 267 289 290 291 295 284 280 289 305 314 315 333 339 324 308 290 280 280 277 222 190 199 213 220 242 256 263 276 285 285 283 284 287 284
175 184 185 184 193 204 206 226 231 244 252 256 258 272 270 284 302 309 321 313 299 285 277 273 281 291 150 142 276 222 212 234 253 272 287 291 292 293 292 291 288 289
177 188 187 187 198 205 213 214 224 227 240 251 274 281 284 267 282 305 293 283 283 290 293 294 295 279 212 235 227 243 263 274 284 285 286 285 283 287 289 289 293 360
182 190 192 193 200 211 213 223 224 236 247 248 248 252 269 279 259 255 277 298 298 296 294 293 292 286 197 214 229 237 241 253 268 280 284 284 285 287 294 301 304 270
188 190 193 195 201 205 213 214 223 232 242 251 252 251 254 259 267 266 273 274 272 270 279 284 281 277 224 217 227 234 232 241 264 280 286 287 288 291 293 297 297 298
189 194 193 199 200 206 206 213 219 223 234 249 252 251 249 254 275 261 250 266 279 281 277 275 271 258 214 217 222 229 234 230 255 269 275 282 288 293 297 293 296 295
193 194 201 200 204 204 208 213 218 223 231 249 258 257 250 250 255 269 274 268 267 265 269 272 272 344 251 225 224 228 233 218 252 263 272 281 282 287 298 301 301 303
193 197 202 205 205 211 211 217 221 222 226 232 248 254 257 256 255 269 276 267 261 257 262 268 269 63 11 240 241 239 236 218 255 264 273 276 276 278 280 276 287 285
194 194 203 204 210 213 218 224 226 223 224 224 230 243 250 253 252 250 258 265 263 266 301 334 328 353 293 268 255 257 255 240 250 254 262 270 274 277 274 274 267 268
193 199 198 203 210 216 220 224 226 219 219 216 234 239 242 236 239 241 238 250 262 261 101 216 276 250 341 295 276 231 189 246 253 264 272 276 278 273 275 264 252 233
194 197 200 202 206 215 220 225 226 221 224 213 223 232 240 250 265 268 265 269 266 262 187 233 277 120 93 48 341 177 219 272 283 281 279 281 281 278 275 278 295 299
197 197 205 206 209 212 217 225 223 220 224 223 224 227 235 242 262 274 283 270 267 285 165 202 269 129 82 59 91 150 193 249 261 275 282 281 282 285 291 298 297 299
203 203 204 211 212 209 210 215 213 224 234 233 224 232 236 240 247 241 242 255 269 275 277 271 330 348 98 92 138 190 220 278 273 271 286 293 295 298 305 299 296 297